Current Version              Previous Version:    01  02  03  04  05  06  07  08  09  10  11  12  13  14  15  16  17  18  19  20  21  22  23  24  25  26  27  28  29  30  
   31  32  33  34  35  36  37  38  39  40  41  42  43  44  45  46  47  48  49  50  51  52  53  54  55  56  57  58  59  60  

[Printable]
949
ASUS44 KLUB 021410
RWRTX
WEST TEXAS WEATHER ROUNDUP
NATIONAL WEATHER SERVICE LUBBOCK TX
900 AM CDT TUE SEP 02 2014

NOTE: "FAIR" INDICATES FEW OR NO CLOUDS BELOW 12,000 FEET WITH NO
SIGNIFICANT WEATHER AND/OR OBSTRUCTIONS TO VISIBILITY.

TXZ004-006>008-010-012-014-016-OKZ002-021500-
TEXAS PANHANDLE/OKLAHOMA PANHANDLE

CITY           SKY/WX    TMP DP  RH WIND       PRES   REMARKS
AMARILLO       CLOUDY    69  65  86 N13       30.04R
BORGER         PTSUNNY   70  65  84 E7        30.01S
CANADIAN       PTSUNNY   73  70  92 E12       29.97S
DALHART        CLOUDY    68  65  90 N14       30.09R FOG
DUMAS          FOG       65  65  97 NE7       30.05R VSB 1/2
GUYMON         CLOUDY    70  65  84 NE5       30.04R
HEREFORD       PTSUNNY   70  66  89 N10       30.04R
PAMPA          CLOUDY    66  64  95 E14       30.01F FOG
PERRYTON       SUNNY     72  66  81 E12       30.00R
$$

TXZ026-029-035-045-048-021500-
SOUTHERN PANHANDLE/SOUTH PLAINS/ROLLING PLAINS

CITY           SKY/WX    TMP DP  RH WIND       PRES   REMARKS
CHILDRESS      SUNNY     82  64  54 VRB3      29.93R
SEMINOLE       SUNNY     78  60  54 S14G21    30.00R
LUBBOCK        SUNNY     77  60  55 S12       29.98R
PLAINVIEW      SUNNY     75  63  66 SW8       29.98R
SNYDER         SUNNY     77  68  74 S15G22    29.96S
$$

TXZ052-054-060>062-072-078-127-140-154-169-021500-
PERMIAN BASIN/CONCHO VALLEY/BIG COUNTRY/EDWARDS PLATEAU

CITY           SKY/WX    TMP DP  RH WIND       PRES   REMARKS
ABILENE        SUNNY     80  69  69 S14G23    29.96R
BIG SPRING     SUNNY     79  68  69 SE18G24   29.99R
BRADY          MOSUNNY   77  70  78 S14       29.98R
BROWNWOOD      MOSUNNY   79  70  73 S13G21    29.97R
JUNCTION       MOSUNNY   78  68  71 S10G18    29.98S
MIDLAND        SUNNY     79  67  66 S20       29.96S
ODESSA         SUNNY     79  65  62 S13       29.98R
SAN ANGELO     CLOUDY    78  69  73 S14G25    29.97S
SONORA         CLOUDY    77  70  78 S12G20    30.03S
SWEETWATER     SUNNY     79  68  69 S18       29.99R
WINK           SUNNY     79  61  53 SE15      29.94R
$$

TXZ055-058-074-075-080-082-021500-
FAR WEST/SOUTHWEST MOUNTAINS/TRANS PECOS

CITY           SKY/WX    TMP DP  RH WIND       PRES   REMARKS
ALPINE         SUNNY     77  59  52 SW6       30.13S
DRYDEN           N/A     82  71  69 SE12      29.96R
EL PASO        MOSUNNY   75  47  36 CALM      30.01R
FORT STOCKTON  SUNNY     78  61  55 S12       29.98R
GUADALUPE PASS SUNNY     73  38  27 SW10      30.14S
MARFA          SUNNY     72  57  60 CALM      30.14S
PECOS          SUNNY     76  53  44 CALM      29.93S
$$

TXZ014-016-019-021>030-083-021500
TEXAS TECH WEST TEXAS MESONET/TEXAS PANHANDLE/NORTHERN SOUTH PLAINS

CITY           SKY/WX    TMP DP  RH WIND       PRES   REMARKS
ABERNATHY 5ENE   N/A     76  60  56 S12       29.99R
AMARILLO 9NNE    N/A     69  66  89 N8        30.03R
AMARILLO 7SSE    N/A     69  65  86 N10       30.04R
AMHERST 1NE      N/A     74  60  62 S5        30.01R
BOOTLEG 11WNW    N/A     67  62  82 N14       30.11R
CANADIAN 6E      N/A     73  68  84 E14       29.96S
CAPROCK CYN SP   N/A     82  60  47 N5        29.95R
CHILDRESS 2NNE   N/A     81  64  55 NW8       29.93R
CLARENDON 2WSW   N/A     72  64  74 N12       29.99R
CLAUDE 12SW      N/A     70  65  85 N12       30.02R
DIMMITT 2NE      N/A     70  56  61 NW8       30.04R
FLOYDADA 2NNE    N/A     75  60  58 S17       29.97R
FRIONA 2NE       N/A     66  61  83 N12       30.06R
GOODLETT 3W      N/A     84  62  48 S16       29.87S
HART 3N          N/A     70  62  73 W6        30.03R
HEREFORD 2NW     N/A     66  63  87 N8        30.05R
MCLEAN 1E        N/A     71  66  84 NE7       29.98S
MEMPHIS 1NE      N/A     80  65  61 N2        29.93S
MULESHOE 2SSW    N/A     71  59  64 W7        30.03R
OLTON 6S         N/A     72  59  63 SW3       30.01R
PALO DURO SP     N/A     71  64  79 N8        30.03R
PAMPA 2E         N/A     67  66  97 E8        30.01S
PLAINVIEW 1S     N/A     73  62  67 SW7       29.99R
SILVERTON 7ESE   N/A     78  60  54 SW20      29.96R
TULIA 2ENE       N/A     72  61  67 W8        30.01R
TURKEY 2WSW      N/A     82  61  49 W5        29.93R
UMBARGER 3NNE    N/A     70  64  82 N13       30.05R
$$

TXZ033>036-039>041-045>048-021500
TEXAS TECH WEST TEXAS MESONET/SOUTH PLAINS

CITY           SKY/WX    TMP DP  RH WIND       PRES   REMARKS
AIKEN 3WSW       N/A     76  62  62 SW13      30.00R
ANDREWS 2NE      N/A     78  61  54 S15       29.98S
ANTON 6SSW       N/A     75  61  60 S12       29.99R
BROWNFIELD 2S    N/A     73  59  61 S8        29.99R
DENVR CTY 7WNW   N/A     74  57  54 S9        30.00S
GAIL 2ESE        N/A     78  66  66 S13       29.96R
LAMESA 2SE       N/A     76  64  66 S12       29.98R
LEVELLAND 4S     N/A     74  60  61 S9        30.00R
LUBBOCK 3WNW     N/A     77  59  53 S10       29.98S
MORTON 1ENE      N/A     73  61  65 SW3       30.01S
ODONNELL 1N      N/A     76  62  62 S12       29.98R
PLAINS 3N        N/A     76  58  53 S10       30.01S
RALLS 1SE        N/A     77  61  59 S13       29.99R
REESE CENTER     N/A     75  59  58 S16       29.98R
SEAGRAVES 1SW    N/A     76  59  57 S7        29.99R
SEMINOLE 2NNE    N/A     78  59  52 S12       29.98S
SLATON 2NE       N/A     76  61  60 S14       29.98R
SNYDER 3E        N/A     78  68  71 S16       29.95R
SUNDOWN 8SW      N/A     76  58  54 S14       30.00S
TAHOKA 3NNE      N/A     77  62  59 S15       29.98R
WOLFFORTH 6SSW   N/A     76  60  57 S9        29.99R
$$

TXZ031-032-036>038-042>044-021500-
TEXAS TECH WEST TEXAS MESONET/ROLLING PLAINS

CITY           SKY/WX    TMP DP  RH WIND       PRES   REMARKS
ASPERMONT 3NE    N/A     82  68  63 S14       29.92R
FLUVANNA 3WNW    N/A     76  65  68 S15       29.96S
GRAHAM 5SSW      N/A     77  64  63 S10       29.98R
GUTHRIE 10WSW    N/A     81  66  61 S9        29.92R
HASKELL 1NW      N/A     82  66  59 S16       29.90S
JAYTON 1SSE      N/A     81  67  63 S16       29.93R
KNOX CITY 3NW    N/A     82  66  58 S14       29.90S
LK A HENRY 1NW   N/A     80  66  62 S13       29.93R
NORTHFIELD 1S    N/A     82  64  53 SW10      29.90R
ODELL 4ENE       N/A     83  67  59 S15       29.89S
PADUCAH 10SW     N/A     80  65  59 S15       29.90S
POST 1NE         N/A     79  63  58 S14       29.95R
RRING SPRGS 3N   N/A     81  63  54 SW17      29.93R
SEYMOUR 3NW      N/A     82  67  61 S13       29.90S
SPUR 1W          N/A     80  64  58 SW12      29.93R
WEINERT 2NNE     N/A     82  69  65 S17       29.91R
WHITE RVR 6NE    N/A     78  63  58 S14       29.96R
$$

TXZ052-054-060>062-072-078-127-140-154-169-021500-
TEXAS TECH WEST TEXAS MESONET/PERMIAN BASIN/
CONCHO VALLEY/BIG COUNTRY/EDWARDS PLATEAU

CITY           SKY/WX    TMP DP  RH WIND       PRES   REMARKS
JUNCTION 1SSW    N/A     79  69  71 S12       29.98S
MERTZON 3NNE     N/A     78  69  73 S17       29.98S
SAN ANGELO 7NW   N/A     77  67  70 S13       29.98R
STRLNG CT 4WSW   N/A     78  69  73 S13       29.98S
ST LAWRNCE 5SW   N/A     76  68  77 S17       29.98R
SWEETWATR 11SW   N/A     77  69  74 S20       29.98S
WALL 1E          N/A     77  67  71 S12       29.98R
$$

TXZ055-058-074-075-080-082-021500-
TEXAS TECH WEST TEXAS MESONET/FAR WEST/SOUTHWEST MOUNTAINS/TRANS PECOS

CITY           SKY/WX    TMP DP  RH WIND       PRES   REMARKS
PRSMN GAP BBNP   N/A     81  59  47 NE10      29.99S
GUADLPE MTN NP   N/A     82  36  18 NW17      30.14S
$$